Regional Weather Roundup
Issued by NWS

Home | Current Version | Previous Version | Text Only | Print | Product List | Glossary On
Versions: 1 2 3 4 5 6 7 8 9 10 11 12 13 14 15 16 17 18 19 20 21 22 23 24 25 26 27 28 29 30 31 32 33 34 35 36 37 38 39 40 41 42 43 44 45 46 47 48 49 50
000
ASUS43 KLOT 240510
RWRIL

ILLINOIS REGIONAL WEATHER ROUNDUP
NATIONAL WEATHER SERVICE CHICAGO/ROMEOVILLE IL
1200 AM CDT WED SEP 24 2014

NOTE: "FAIR" INDICATES FEW OR NO CLOUDS BELOW 12,000 FEET WITH NO
SIGNIFICANT WEATHER AND/OR OBSTRUCTIONS TO VISIBILITY.

* THESE STATIONS ARE NOT UNDER NWS QUALITY CONTROL. THEY ALSO MAY NOT
  REPORT WEATHER SUCH AS PRECIPITATION OR FOG.

ILZ001-002-007-009-015-016-024-240600-
NORTHWEST ILLINOIS

CITY           SKY/WX    TMP DP  RH WIND       PRES   REMARKS
MOLINE         PTCLDY    53  48  83 E7        30.26S
STERLING*      MOCLDY    54  46  76 SE5       30.28S
SAVANNA*       MOCLDY    56  49  75 CALM      30.28R
$$

ILZ003-004-008-010-011-017-018-240600-
NORTH CENTRAL ILLINOIS

CITY           SKY/WX    TMP DP  RH WIND       PRES   REMARKS
ROCKFORD       PTCLDY    55  48  77 SE7       30.31F
DE KALB*       PTCLDY    52  47  84 E7        30.31S
PERU*          MOCLDY    60  49  66 SE8       30.30R
$$

ILZ005-006-012>014-019>023-240600-
NORTHEAST ILLINOIS

CITY           SKY/WX    TMP DP  RH WIND       PRES   REMARKS
CHICAGO-OHARE  PTCLDY    59  50  72 CALM      30.31R
CHICAGO-MIDWAY PTCLDY    61  53  75 SE5       30.31S
AURORA         PTCLDY    53  48  83 E5        30.31S
LANSING*       PTCLDY    54  50  86 E3        30.32S
JOLIET*        PTCLDY    55  48  78 E5        30.31S
WAUKEGAN       CLEAR     51  50  96 CALM      30.31S
DUPAGE AIRPORT CLEAR     54  48  80 CALM      30.30S
KANKAKEE*      PTCLDY    51  49  93 CALM      30.32R
WHEELING       CLEAR     57  50  77 CALM      30.32S
ROMEOVILLE*    PTCLDY    57  49  75 SE8       30.31S
NORTHERLY ISL    N/A     61  56  83 SE5         N/A
$$

LMZ740>746-240600-
SOUTHERN LAKE MICHIGAN

STATION/POSITION SKY/WX   TEMP    WIND        PRES    VSBY  WAVE
                          AIR SEA DIR/SP/G                  HT/PER
                          (F)     (DEG/KT/KT) (MB)    (MI)  (FT/S)
SOUTHERN BUOY              62 61  150/  6/  6 1026.8S         0
WAUKEGAN HARBOR            59     190/  3/  4   N/A
BURNHAM HARBOR             61     150/  5/  5   N/A
CALUMET HARBOR             63     110/  6/  8 1025.2S
MICHIGAN CITY 6N           62 64  120/ 10/ 12   N/A           1/ 2
ST. JOSEPH                 62 65  110/ 10/ 12   N/A           1/ 2
$$

ILZ025>027-034>036-040-047-049-050-058-095>099-240600-
WEST-CENTRAL ILLINOIS

CITY           SKY/WX    TMP DP  RH WIND       PRES   REMARKS
QUINCY         MOCLDY    58  51  78 E6        30.25S
GALESBURG*     PTCLDY   N/A N/A N/A CALM      30.27R
MACOMB*        PTCLDY    50  49  95 CALM      30.28S
JACKSONVILLE*  PTCLDY    58  51  77 SE6       30.27F
PITTSFIELD*    PTCLDY    55  51  88 CALM      30.27F
$$

ILZ028>032-037-038-041>044-048-051>054-059>061-240600-
CENTRAL ILLINOIS

CITY           SKY/WX    TMP DP  RH WIND       PRES   REMARKS
PONTIAC        PTCLDY    54  50  87 SE5       30.29S
BLOOMINGTON    MOCLDY    58  49  72 SE7       30.31R
DECATUR        PTCLDY    52  48  86 E3        30.30R
PEORIA         MOCLDY    61  47  59 S7        30.28R
LACON*         MOCLDY    58  47  65 SE5       30.28R HAZE
LINCOLN*       MOCLDY    56  49  78 CALM      30.27S
SPRINGFIELD    PTCLDY    53  50  89 CALM      30.29R
TAYLORVILLE    PTCLDY    52  50  93 CALM      30.28S
$$

ILZ033-039-045-046-055>057-062-063-240600-
EAST-CENTRAL ILLINOIS

CITY           SKY/WX    TMP DP  RH WIND       PRES   REMARKS
CHAMPAIGN        N/A    N/A N/A N/A MISG      30.30S
DANVILLE*      PTCLDY    51  48  89 E3        30.28S
RANTOUL*       PTCLDY    55  48  78 CALM      30.31S
MATTOON        CLEAR     55  49  80 SE3       30.28S
PARIS*         CLEAR     47  47  99 CALM      30.30S
$$

ILZ079-100>102-240600-
SOUTHWEST ILLINOIS

CITY           SKY/WX    TMP DP  RH WIND       PRES   REMARKS
ALTON          PTCLDY    53  51  93 CALM      30.27S
BELLEVILLE     CLEAR     52  52  99 W2        30.26S
CAHOKIA*       CLEAR     53  50  89 CALM      30.26S
SPARTA*        CLEAR     51  48  90 CALM      30.27S
$$

ILZ064>066-069>071-074>076-080>082-084>086-088>090-092>094-240600-
SOUTH-CENTRAL ILLINOIS

CITY           SKY/WX    TMP DP  RH WIND       PRES   REMARKS
CARBONDALE     CLEAR     49  48  97 CALM      30.25S
CAIRO*         CLEAR     54  47  80 CALM      30.23S
EFFINGHAM*     PTCLDY    50  46  88 E3        30.28S
MARION         CLEAR     50  50 100 CALM      30.26S
MT. VERNON     CLEAR    N/A N/A N/A N3        30.27S
CENTRALIA*     CLEAR     52  48  88 CALM      30.26F
SALEM*         CLEAR     59  52  77 CALM      30.27F
METROPOLIS*    CLEAR     50  49  95 CALM      30.23S
$$

ILZ067-068-072-073-078-083-087-091-240600-
SOUTHEAST ILLINOIS

CITY           SKY/WX    TMP DP  RH WIND       PRES   REMARKS
LAWRENCEVILLE  CLEAR     52  49  89 NE6       30.28F
FLORA*         CLEAR     51  48  91 CALM      30.28S
FAIRFIELD*     CLEAR    N/A N/A N/A N3        30.26F
HARRISBURG*    CLEAR     53  50  88 CALM      30.27S
ROBINSON*      CLEAR     49  49  99 CALM      30.29F FOG
CARMI*         FAIR      50  49  97 CALM      30.26S
$$

ABBREVIATIONS USED IN REMARKS
   TC - TEMPERATURE IN CELSIUS
  WCI - WIND CHILL INDEX
   HX - HEAT INDEX
  VSB - VISIBILITY
$$



USA.gov is the U.S. government's official web portal to all federal, state and local government web resources and services.